Date Time,Air Temp,Sky Temp,Clarity,Light Level,Rain Sensor,Readings
2010-11-03 00:00:11,19.5,7.9,11.6,0.0,2.7,111
2010-11-03 00:05:11,19.5,7.5,12.1,0.0,2.7,112
2010-11-03 00:10:11,19.6,7.7,11.9,0.0,2.7,111
2010-11-03 00:15:11,19.6,7.9,11.7,0.0,2.7,111
2010-11-03 00:20:11,19.6,8.1,11.5,0.0,2.7,111
2010-11-03 00:25:11,19.6,7.9,11.7,0.0,2.7,112
2010-11-03 00:30:11,19.6,7.8,11.7,0.0,2.7,111
2010-11-03 00:35:11,19.6,7.7,11.9,0.0,2.7,112
2010-11-03 00:40:11,19.6,8.0,11.6,0.0,2.7,111
2010-11-03 00:45:11,19.6,7.7,11.9,0.0,2.7,111
2010-11-03 00:50:11,19.6,7.9,11.7,0.0,2.7,112
2010-11-03 00:55:11,19.6,7.7,11.9,0.0,2.7,112
2010-11-03 01:00:11,19.6,6.9,12.7,0.0,4.8,111
2010-11-03 01:05:11,19.4,7.7,11.7,0.0,3.8,111
2010-11-03 01:10:11,19.4,6.7,12.7,0.0,6.9,112
2010-11-03 01:15:11,19.3,6.9,12.4,0.0,8.6,111
2010-11-03 01:20:11,19.3,8.2,11.1,0.0,9.1,111
2010-11-03 01:25:11,19.2,8.4,10.9,0.0,5.2,112
2010-11-03 01:30:11,19.2,7.9,11.3,0.0,3.9,111
2010-11-03 01:35:11,19.2,8.0,11.2,0.0,4.0,112
2010-11-03 01:40:11,19.2,8.1,11.1,0.0,4.4,111
2010-11-03 01:45:11,19.2,8.5,10.7,0.0,3.4,111
2010-11-03 01:50:11,19.2,8.7,10.5,0.0,3.2,112
2010-11-03 01:55:11,19.3,8.6,10.7,0.0,3.3,111
2010-11-03 02:00:11,19.3,8.6,10.7,0.0,3.3,112
2010-11-03 02:05:11,19.4,8.6,10.7,0.0,3.3,111
2010-11-03 02:10:11,19.4,8.8,10.6,0.0,3.3,111
2010-11-03 02:15:11,19.4,8.8,10.6,0.0,3.3,112
2010-11-03 02:20:11,19.5,8.7,10.8,0.0,3.3,111
2010-11-03 02:25:11,19.5,8.8,10.7,0.0,3.3,111
2010-11-03 02:30:11,19.6,8.5,11.1,0.0,3.7,112
2010-11-03 02:35:11,19.6,8.7,10.9,0.0,4.1,111
2010-11-03 02:40:11,19.6,9.0,10.6,0.0,3.5,112
2010-11-03 02:45:11,19.6,8.8,10.8,0.0,3.5,111
2010-11-03 02:50:11,19.6,8.9,10.7,0.0,3.6,112
2010-11-03 02:55:11,19.6,9.0,10.6,0.0,3.5,111
2010-11-03 03:00:11,19.7,8.7,10.9,0.0,3.5,112
2010-11-03 03:05:11,19.7,8.7,11.0,0.0,3.6,111
2010-11-03 03:10:11,19.7,9.0,10.8,0.0,3.7,111
2010-11-03 03:15:11,19.7,8.4,11.3,0.0,5.1,112
2010-11-03 03:20:11,19.7,8.1,11.5,0.0,6.4,111
2010-11-03 03:25:11,19.6,8.5,11.1,0.0,6.8,112
2010-11-03 03:30:11,19.6,8.6,10.9,0.0,5.4,111
2010-11-03 03:35:11,19.6,8.8,10.7,0.0,4.7,112
2010-11-03 03:40:11,19.6,8.8,10.7,0.0,3.7,111
2010-11-03 03:45:11,19.2,8.5,10.7,0.0,3.7,111
2010-11-03 03:50:11,19.6,8.9,10.7,0.0,3.9,112
2010-11-03 03:55:11,19.6,9.2,10.4,0.0,3.4,111
2010-11-03 04:00:11,19.7,9.2,10.5,0.0,3.5,112
2010-11-03 04:05:11,19.7,8.2,11.5,0.0,10.2,111
2010-11-03 04:10:11,19.7,8.7,11.0,0.0,4.3,112
2010-11-03 04:15:11,19.6,9.2,10.4,0.0,3.9,111
2010-11-03 04:20:11,19.7,9.0,10.7,0.0,3.8,112
2010-11-03 04:25:11,19.8,8.8,11.0,0.0,4.6,112
2010-11-03 04:30:11,19.7,8.6,11.1,0.0,5.8,111
2010-11-03 04:35:11,19.7,8.7,11.0,0.0,4.1,112
2010-11-03 04:40:11,19.7,7.3,12.4,0.0,3.9,111
2010-11-03 04:45:11,19.7,2.7,17.0,0.0,4.0,111
2010-11-03 04:50:11,19.6,2.4,17.3,0.0,3.8,111
2010-11-03 04:55:11,19.6,5.7,14.0,0.0,3.7,112
2010-11-03 05:00:11,20.9,-1.5,22.4,0.0,3.8,111
2010-11-03 05:05:11,23.4,-2.6,25.9,0.0,4.1,112
2010-11-03 05:10:11,24.0,-3.2,27.2,0.0,4.0,112
2010-11-03 05:15:11,24.2,-6.6,30.7,0.0,3.9,111
2010-11-03 05:20:11,24.3,-4.0,28.3,0.0,3.9,112
2010-11-03 05:25:11,24.2,1.4,22.9,0.0,3.9,111
2010-11-03 05:30:11,22.1,5.9,16.2,0.0,4.0,112
2010-11-03 05:35:11,20.4,4.9,15.6,0.0,3.8,111
2010-11-03 05:40:11,20.5,3.4,17.1,0.0,3.7,112
2010-11-03 05:45:11,20.0,6.1,14.0,0.0,3.7,111
2010-11-03 05:50:11,19.8,5.0,14.7,0.0,3.6,111
2010-11-03 05:55:11,20.0,1.6,18.3,0.0,3.6,112
2010-11-03 06:00:11,22.1,-5.0,27.1,0.1,3.9,112
2010-11-03 06:05:11,23.6,-6.6,30.2,0.2,3.9,111
2010-11-03 06:10:11,23.5,-10.1,33.5,0.4,3.8,112
2010-11-03 06:15:11,24.0,-10.1,34.1,0.8,3.8,112
2010-11-03 06:20:11,24.0,-10.4,34.4,1.7,3.8,111
2010-11-03 06:25:11,24.0,-7.3,31.3,3.6,3.7,112
2010-11-03 06:30:11,24.0,1.7,22.2,6.5,3.7,112
2010-11-03 06:35:11,21.5,4.5,17.1,10.3,3.9,111
2010-11-03 06:40:11,20.3,4.7,15.6,16.2,3.7,111
2010-11-03 06:45:11,19.8,2.8,17.0,22.4,3.6,112
2010-11-03 06:50:11,19.6,4.3,15.2,25.8,3.4,111
2010-11-03 06:55:11,19.5,4.5,14.9,27.8,3.3,112
2010-11-03 07:00:11,19.7,3.5,16.2,29.2,3.3,111
2010-11-03 07:05:11,19.6,4.8,14.8,29.9,3.3,112
2010-11-03 07:10:11,20.3,0.1,20.2,30.8,3.4,111
2010-11-03 07:15:11,22.9,-3.5,26.5,31.3,3.7,112
2010-11-03 07:20:11,23.7,-4.5,28.2,31.7,3.5,112
2010-11-03 07:25:11,23.9,-9.8,33.7,31.9,3.5,111
2010-11-03 07:30:11,23.9,-10.4,34.4,32.0,3.5,112
2010-11-03 07:35:11,23.9,-10.6,34.5,32.1,3.5,112
2010-11-03 07:40:11,23.9,-10.3,34.3,32.2,3.4,112
2010-11-03 07:45:11,23.9,-10.4,34.3,32.2,3.4,111
2010-11-03 07:50:11,23.9,-9.9,33.9,32.3,3.4,112
2010-11-03 07:55:11,23.9,-9.9,33.8,32.3,3.4,112
2010-11-03 08:00:11,23.9,-10.4,34.3,32.3,3.4,112
2010-11-03 08:05:11,23.9,-10.4,34.3,32.3,3.3,112
2010-11-03 08:10:11,23.9,-10.5,34.4,32.3,3.3,111
2010-11-03 08:15:11,23.9,-10.7,34.6,32.3,3.3,112
2010-11-03 08:20:11,23.9,-10.5,34.4,32.4,3.3,112
2010-11-03 08:25:11,23.9,-10.4,34.3,32.4,3.3,112
2010-11-03 08:30:11,24.0,-10.6,34.6,32.4,3.2,112
2010-11-03 08:35:11,24.0,-10.8,34.8,32.4,3.2,111
2010-11-03 08:40:11,24.0,-10.6,34.6,32.4,3.2,112
2010-11-03 08:45:11,24.0,-10.3,34.3,32.4,3.2,112
2010-11-03 08:50:12,24.1,-10.3,34.4,32.4,3.2,111
2010-11-03 08:55:12,24.3,-10.7,35.0,32.4,3.4,112
2010-11-03 09:00:12,24.3,-10.9,35.2,32.4,3.4,112
2010-11-03 09:05:12,24.3,-10.7,35.0,32.4,3.4,112
2010-11-03 09:10:12,24.4,-10.8,35.1,32.5,3.4,111
2010-11-03 09:15:12,24.4,-10.3,34.7,32.5,3.4,112
2010-11-03 09:20:12,24.5,-10.1,34.6,32.5,3.4,112
2010-11-03 09:25:12,24.6,-9.7,34.3,32.5,3.3,112
2010-11-03 09:30:12,24.7,-9.3,34.0,32.5,3.3,111
2010-11-03 09:35:12,24.8,-9.4,34.2,32.5,3.2,112
2010-11-03 09:40:12,24.9,-9.5,34.4,32.5,3.2,112
2010-11-03 09:45:12,24.9,-7.6,32.5,32.5,3.2,112
2010-11-03 09:50:12,25.0,-0.0,25.0,32.5,3.2,111
2010-11-03 09:55:12,24.9,2.3,22.6,32.5,3.2,112
2010-11-03 10:00:12,25.4,2.1,23.3,32.5,3.2,111
2010-11-03 10:05:12,25.4,2.9,22.5,32.5,3.2,111
2010-11-03 10:10:12,25.2,4.3,20.9,32.5,3.2,111
2010-11-03 10:15:12,24.5,4.4,20.1,32.5,3.2,112
2010-11-03 10:20:12,24.8,0.0,24.8,32.5,3.3,111
2010-11-03 10:25:12,26.1,-4.6,30.7,32.5,3.3,112
2010-11-03 10:30:12,26.1,-3.4,29.5,32.5,3.3,112
2010-11-03 10:35:12,26.3,-3.8,30.0,32.5,3.2,111
2010-11-03 10:40:12,26.4,-0.7,27.1,32.5,3.2,112
2010-11-03 10:45:12,26.7,1.3,25.4,32.6,3.2,111
2010-11-03 10:50:12,27.0,0.3,26.7,32.6,3.2,112
2010-11-03 10:55:12,27.1,-3.4,30.5,32.5,3.2,111
2010-11-03 11:00:12,27.0,-0.7,27.7,32.6,3.2,112
2010-11-03 11:05:12,27.4,-5.5,32.9,32.6,3.1,112
2010-11-03 11:10:12,27.7,-5.0,32.8,32.6,3.1,111
2010-11-03 11:15:12,27.8,-7.4,35.2,32.6,3.2,112
2010-11-03 11:20:12,27.9,-6.7,34.6,32.6,3.2,111
2010-11-03 11:25:12,28.2,-6.5,34.7,32.6,3.2,112
2010-11-03 11:30:12,28.4,-6.7,35.0,32.6,3.2,112
2010-11-03 11:35:12,28.4,-5.7,34.0,32.6,3.2,111
2010-11-03 11:40:12,28.6,-5.1,33.7,32.6,3.2,112
2010-11-03 11:45:12,28.4,-5.9,34.4,32.6,3.1,111
2010-11-03 11:50:12,28.3,-6.4,34.7,32.6,3.0,112
2010-11-03 11:55:12,27.9,-5.8,33.7,32.6,3.1,111
2010-11-03 12:00:12,28.2,-3.1,31.3,32.6,3.2,112
2010-11-03 12:05:12,28.4,-0.4,28.8,32.6,3.2,111
2010-11-03 12:10:12,27.9,-2.4,30.4,32.6,3.2,112
2010-11-03 12:15:12,27.9,-0.8,28.8,32.6,3.2,111
2010-11-03 12:20:12,27.8,-1.3,29.2,32.6,3.2,112
2010-11-03 12:25:12,27.9,-4.0,31.9,32.6,3.3,112
2010-11-03 12:30:12,27.8,-2.3,30.2,32.6,3.2,111
2010-11-03 12:35:12,27.4,5.7,21.7,32.5,3.2,112
2010-11-03 12:40:12,25.1,7.5,17.7,32.5,3.3,111
2010-11-03 12:45:12,22.8,6.9,15.9,32.6,3.4,112
2010-11-03 12:50:12,22.9,4.5,18.4,32.5,3.3,111
2010-11-03 12:55:12,22.7,8.3,14.4,32.5,3.3,112
2010-11-03 13:00:12,21.8,7.7,14.1,32.4,3.5,111
2010-11-03 13:05:12,21.4,8.7,12.7,32.4,3.6,112
2010-11-03 13:10:12,21.2,8.4,12.8,32.4,3.5,111
2010-11-03 13:15:12,21.1,9.5,11.6,32.4,3.4,111
2010-11-03 13:20:12,21.1,8.8,12.3,32.4,3.4,112
2010-11-03 13:25:12,21.0,9.0,12.0,32.4,3.4,111
2010-11-03 13:30:12,20.9,9.3,11.6,32.3,3.5,112
2010-11-03 13:35:12,21.1,9.3,11.8,32.2,3.5,111
2010-11-03 13:40:12,20.7,9.2,11.5,32.2,3.5,111
2010-11-03 13:45:12,20.6,9.1,11.5,32.3,3.7,112
2010-11-03 13:50:12,20.6,8.4,12.2,32.5,3.6,112
2010-11-03 13:55:12,20.8,8.2,12.6,32.5,3.6,111
2010-11-03 14:00:12,21.0,8.5,12.5,32.4,3.6,112
2010-11-03 14:05:12,20.8,8.0,12.8,32.2,8.4,111
2010-11-03 14:10:12,20.5,8.7,11.8,32.3,5.7,112
2010-11-03 14:15:12,20.2,8.5,11.7,32.3,5.5,111
2010-11-03 14:20:12,20.1,8.9,11.2,32.2,5.0,112
2010-11-03 14:25:12,20.0,8.8,11.2,32.2,4.6,111
2010-11-03 14:30:12,19.9,9.1,10.8,32.3,4.2,111
2010-11-03 14:35:12,20.0,8.9,11.1,32.4,4.1,112
2010-11-03 14:40:12,20.2,7.2,13.0,32.5,4.2,111
2010-11-03 14:45:12,20.3,6.4,13.9,32.4,4.2,111
2010-11-03 14:50:12,20.3,8.8,11.5,32.1,4.1,112
2010-11-03 14:55:12,20.2,8.9,11.3,31.9,4.2,111
2010-11-03 15:00:12,20.1,8.9,11.2,32.0,4.4,112
2010-11-03 15:05:12,20.0,8.4,11.6,32.0,5.7,111
2010-11-03 15:10:12,19.9,8.4,11.5,31.9,6.2,112
2010-11-03 15:15:12,19.8,8.5,11.3,31.8,5.8,111
2010-11-03 15:20:12,19.8,8.7,11.1,31.7,5.6,112
2010-11-03 15:25:12,19.8,8.9,10.9,31.6,5.0,111
2010-11-03 15:30:12,19.8,9.2,10.6,31.5,4.7,111
2010-11-03 15:35:12,19.8,9.2,10.6,31.5,4.8,112
2010-11-03 15:40:12,19.9,9.1,10.8,31.5,4.8,111
2010-11-03 15:45:12,19.9,8.8,11.1,31.6,5.3,112
2010-11-03 15:50:12,19.9,8.4,11.5,31.5,10.3,111
2010-11-03 15:55:12,19.9,8.7,11.2,31.1,9.2,112
2010-11-03 16:00:12,19.8,8.5,11.3,31.0,7.7,111
2010-11-03 16:05:12,19.8,8.3,11.5,30.9,7.3,111
2010-11-03 16:10:12,19.8,8.7,11.1,30.8,6.0,112
2010-11-03 16:15:12,19.8,8.8,11.0,30.8,6.5,111
2010-11-03 16:20:12,19.9,8.8,11.1,30.5,9.6,112
2010-11-03 16:25:12,20.0,10.8,9.2,29.8,8.4,111
2010-11-03 16:30:12,19.9,9.9,10.0,28.6,6.5,112
2010-11-03 16:35:12,19.8,8.9,10.9,26.8,5.7,111
2010-11-03 16:40:12,19.8,9.3,10.5,24.7,5.4,112
2010-11-03 16:45:12,19.9,9.0,10.8,21.7,6.0,112
2010-11-03 16:50:12,19.9,9.0,10.9,18.6,8.1,111
2010-11-03 16:55:12,20.0,9.2,10.7,13.4,6.9,112
2010-11-03 17:00:12,20.0,9.2,10.8,8.2,7.1,111
2010-11-03 17:05:12,20.0,9.4,10.6,4.8,6.7,112
2010-11-03 17:10:12,20.0,9.9,10.1,2.5,5.5,111
2010-11-03 17:15:12,20.0,9.9,10.1,1.1,5.3,111
2010-11-03 17:20:12,20.0,10.1,10.0,0.6,5.0,112
2010-11-03 17:25:12,20.1,10.0,10.0,0.3,4.9,112
2010-11-03 17:30:12,20.1,10.0,10.1,0.1,4.8,112
2010-11-03 17:35:12,20.1,10.2,9.9,0.0,4.6,111
2010-11-03 17:40:12,20.1,10.1,10.0,0.0,4.6,112
2010-11-03 17:45:12,20.2,10.4,9.7,0.0,4.4,111
2010-11-03 17:50:12,20.2,10.5,9.7,0.0,4.3,112
2010-11-03 17:55:12,20.3,10.5,9.8,0.0,4.3,111
2010-11-03 18:00:12,20.4,10.2,10.1,0.0,4.3,112
2010-11-03 18:05:12,20.4,10.5,9.9,0.0,4.2,111
2010-11-03 18:10:12,20.4,10.4,10.0,0.0,4.3,111
2010-11-03 18:15:12,20.4,10.5,9.9,0.0,4.6,112
2010-11-03 18:20:12,20.4,10.3,10.0,0.0,5.2,111
2010-11-03 18:25:12,20.3,10.7,9.6,0.0,4.3,112
2010-11-03 18:30:12,20.3,10.6,9.7,0.0,4.3,111
2010-11-03 18:35:12,20.3,10.8,9.6,0.0,4.3,112
2010-11-03 18:40:12,20.4,10.6,9.8,0.0,4.2,111
2010-11-03 18:45:12,20.4,10.4,10.0,0.0,5.1,112
2010-11-03 18:50:12,20.4,10.5,9.9,0.0,5.2,111
2010-11-03 18:55:12,20.3,10.5,9.8,0.0,5.0,112
2010-11-03 19:00:12,20.4,10.0,10.4,0.0,6.0,112
2010-11-03 19:05:12,19.9,10.3,9.7,0.0,5.6,112
2010-11-03 19:10:12,20.3,10.5,9.9,0.0,4.6,111
2010-11-03 19:15:12,20.3,10.9,9.4,0.0,4.4,111
2010-11-03 19:20:12,20.4,10.7,9.6,0.0,4.3,112
2010-11-03 19:25:12,20.4,10.7,9.6,0.0,4.2,111
2010-11-03 19:30:12,20.4,11.0,9.4,0.0,4.1,112
2010-11-03 19:35:12,20.4,10.9,9.6,0.0,4.2,111
2010-11-03 19:40:12,20.5,11.2,9.3,0.0,4.1,112
2010-11-03 19:45:12,20.5,11.2,9.3,0.0,4.1,111
2010-11-03 19:50:12,20.5,11.2,9.3,0.0,4.1,111
2010-11-03 19:55:12,20.5,10.9,9.6,0.0,4.1,112
2010-11-03 20:00:12,20.5,10.9,9.6,0.0,4.2,111
2010-11-03 20:05:12,20.4,10.7,9.7,0.0,4.2,112
2010-11-03 20:10:12,20.4,10.7,9.8,0.0,4.1,111
2010-11-03 20:15:12,20.4,10.8,9.6,0.0,4.1,112
2010-11-03 20:20:12,20.4,10.6,9.8,0.0,4.1,112
2010-11-03 20:25:12,20.4,10.5,9.9,0.0,4.1,111
2010-11-03 20:30:12,20.4,10.3,10.1,0.0,4.1,112
2010-11-03 20:35:12,20.4,10.3,10.1,0.0,4.1,111
2010-11-03 20:40:12,20.4,10.4,10.0,0.0,4.1,111
2010-11-03 20:45:12,20.4,10.4,9.9,0.0,4.0,112
2010-11-03 20:50:12,20.4,10.6,9.8,0.0,4.0,111
2010-11-03 20:55:12,20.4,10.4,10.0,0.0,4.0,111
2010-11-03 21:00:12,20.4,10.1,10.2,0.0,4.1,112
2010-11-03 21:05:12,20.4,10.2,10.2,0.0,4.1,111
2010-11-03 21:10:12,20.4,9.6,10.7,0.0,4.1,112
2010-11-03 21:15:12,20.4,9.5,10.9,0.0,4.1,111
2010-11-03 21:20:12,20.4,9.5,10.9,0.0,4.1,112
2010-11-03 21:25:12,20.7,9.1,11.6,0.0,4.1,111
2010-11-03 21:30:12,20.4,9.2,11.2,0.0,4.1,112
2010-11-03 21:35:12,20.4,9.5,10.9,0.0,4.1,111
2010-11-03 21:40:12,20.5,9.9,10.6,0.0,4.1,112
2010-11-03 21:45:12,20.5,10.1,10.5,0.0,4.0,112
2010-11-03 21:50:12,20.6,9.9,10.7,0.0,3.9,111
2010-11-03 21:55:12,20.6,10.0,10.5,0.0,3.9,112
2010-11-03 22:00:12,20.5,10.0,10.5,0.0,4.0,111
2010-11-03 22:05:12,20.5,9.9,10.5,0.0,4.0,112
2010-11-03 22:10:12,20.4,9.9,10.5,0.0,4.0,112
2010-11-03 22:15:12,20.3,10.0,10.3,0.0,4.0,111
2010-11-03 22:20:12,20.3,10.0,10.3,0.0,3.9,112
2010-11-03 22:25:12,20.3,10.4,9.9,0.0,3.9,112
2010-11-03 22:30:12,20.3,10.3,9.9,0.0,3.9,111
2010-11-03 22:35:12,20.3,10.4,9.9,0.0,3.9,112
2010-11-03 22:40:12,20.3,10.2,10.0,0.0,3.9,111
2010-11-03 22:45:12,20.2,10.1,10.1,0.0,3.9,112
2010-11-03 22:50:12,20.2,9.8,10.4,0.0,4.1,111
2010-11-03 22:55:12,20.2,10.0,10.2,0.0,4.2,112
2010-11-03 23:00:12,20.1,9.8,10.3,0.0,4.7,112
2010-11-03 23:05:12,20.1,9.9,10.2,0.0,4.5,111
2010-11-03 23:10:12,19.7,10.1,9.6,0.0,4.2,112
2010-11-03 23:15:12,20.1,10.1,10.0,0.0,4.2,111
2010-11-03 23:20:12,20.1,9.9,10.2,0.0,4.1,112
2010-11-03 23:25:12,20.1,10.0,10.1,0.0,4.1,111
2010-11-03 23:30:12,20.1,10.1,10.0,0.0,4.1,112
2010-11-03 23:35:12,20.2,10.1,10.1,0.0,4.1,112
2010-11-03 23:40:12,20.2,10.0,10.1,0.0,4.1,111
2010-11-03 23:45:12,20.2,10.0,10.2,0.0,4.2,112
2010-11-03 23:50:12,20.2,10.2,10.0,0.0,4.2,112
2010-11-03 23:55:13,20.3,10.4,9.9,0.0,4.2,111
